Location: Camaret
(48.2753°N, 4.5961°W)
Time: 04:40:16
(UTC+00:00)

YAOGAN 3 - Pass Details

Date: 29 October 2020
Orbit: 625 x 627 km, 98.0° (Epoch: 01 December)

Event Time Altitude Azimuth Distance (km) Brightness Sun altitude
Rises 18:06:59 0° 160° (SSE) 2,901 7.9 -11.1°
Reaches altitude 10° 18:09:10 10° 159° (SSE) 1,999 7.0 -11.4°
Maximum altitude 18:13:31 77° 75° (ENE) 650 4.5 -12.1°
Drops below altitude 10° 18:17:54 10° 349° (N) 2,015 7.2 -12.9°
Sets 18:20:06 0° 348° (NNW) 2,927 8.1 -13.2°
